STARLINK-34621, 64774

Orbit data source: Space-Track

STARLINK-34621, 64774 is a payload satellite owned by SpaceX/Seattle (US) in LEO that was launched on Tue, 08 Jul 2025 UTC via an FALCON 9 launch vehicle from the Air Force Eastern Test Range (AFETR). Payload-class satellites include a variety of spacecraft equipped with specific instruments for various scientific and technological missions. These include communications satellites like Starlink; space stations such as the ISS; scientific satellites like the Hubble; Earth observation satellites from companies like Planet Labs, Umbra, and HawkEye 360; GPS; miniature CubeSats for education and research; and military/defense satellites.

Loading next visibility...
Identifier
64774, 2025-147V
Orbit
LEO
Country
Flag of USUS
Related business
Manufacturer
SpaceX/Seattle
Mission
Operational Commercial Communications
Bus & Motor
STARLINK V2MO, Unknown motor
Mass
575 kg wet, ~530 kg dry
Launch date (UTC)
2025-07-08 (1 year ago)
Launch vehicle
FALCON 9
Launch site
Air Force Eastern Test Range (AFETR)
Object type
Payload
Rocket body
Debris
Shape & HBR
Box + 1 Pan, 17.7 m
Radar Cross Section
41.120 m², Large (>1 m²)

Expand to show TLE details & history
Last TLE update: 10 hours ago

TLE from 10 hours ago
0 STARLINK-34621
1 64774U 25147V   26235.60686290  .00024720  00000-0  84424-3 0  9992
2 64774  53.1585 187.7087 0000976  90.7408 269.3705 15.30188916 64234
Epoch: 2026-08-23T14:33Z
TLE epoch observation values (Epoch: 2026-08-23T14:33:52.954Z)
Latitude
0.00001°
Longitude
-2.66243°
Altitude
476.155 km
Speed
7.629 km/s
True Right ascension
12h 30m 50s
True Declination
0° 00' 00"
Sunlit
Object was in daylight at epoch
Visualization orbit readout
Latitude
Unknown
Longitude
Unknown
Altitude
Unknown
Speed
Unknown
Apparent Right ascension
Unknown
Apparent Declination
Unknown
Sunlit
N/A
Visualization observer readout
Local Sidereal Time
15:53:46
Azimuth
Unknown
Elevation
Unknown
Doppler factor
Unknown
Orbital elements
Apogee altitude
476.174 km
Perigee altitude
474.836 km
Semi-major axis
6,853.642 km
Eccentricity
0.0001
Inclination
53.1585°
RAAN
187.7087°
Arg. of periapsis
90.7408°
True anomaly
269.35932°
Mean anomaly
269.3705°
Eccentric anomaly
269.36491°
Mean motion
3.82526 °/min
Orbital period
94.11 mins
BSTAR
0.00084424
Loading maneuver chart data...
Computing Atmospheric mass density...
Loading historical data...
Loading historical data...
Loading historical data...
Loading historical data...
Loading historical data...
Loading historical data...
Loading historical data...

Documentation

Showing up to 5 results
|